• Processing (Info)

  • MPEC 2023-J114 : 2023 JD1

    The following Minor Planet Electronic Circular may be linked-to from your own Web pages, but must not otherwise be redistributed electronically.

    A form allowing access to any MPEC is at the bottom of this page.


    Read MPEC 2023-J113 Read MPEC 2023-J115


    M.P.E.C. 2023-J114                                 Issued 2023 May 13, 00:29 UT
    
         The Minor Planet Electronic Circulars contain information on unusual
             minor planets, routine data on comets and natural satellites,
             and occasional editorial announcements.  They are published
        on behalf of Division F of the International Astronomical Union by the
              Minor Planet Center, Smithsonian Astrophysical Observatory,
                              Cambridge, MA 02138, U.S.A.
    			  
                 Prepared using the Tamkin Foundation Computer Network
    
                                  MPC@CFA.HARVARD.EDU
                URL https://www.minorplanetcenter.net/    ISSN 1523-6714
    
                                    2023 JD1                                 
    
    
    Observations:
         K23J01D*1C2023 05 12.38345114 30 30.856+14 06 48.10         18.60GVEJ114703
         K23J01D 1C2023 05 12.38469614 30 33.214+14 06 17.06         18.87GVEJ114703
         K23J01D 1C2023 05 12.38594114 30 35.672+14 05 45.28         19.16GVEJ114703
         K23J01D 1C2023 05 12.38718314 30 38.110+14 05 14.50         18.82GVEJ114703
         K23J01D mC2023 05 12.42502114 31 53.162+13 49 16.75         18.97GVEJ114I52
         K23J01D mC2023 05 12.42519114 31 53.512+13 49 12.65         18.65GVEJ114I52
         K23J01D mC2023 05 12.42536114 31 53.854+13 49 08.15         19.20GVEJ114I52
         K23J01D mC2023 05 12.42553214 31 54.196+13 49 03.94         18.72GVEJ114I52
         K23J01D mC2023 05 12.45952314 33 02.502+13 34 38.68         18.96GVEJ114I52
         K23J01D mC2023 05 12.45969314 33 02.848+13 34 34.57         19.17GVEJ114I52
         K23J01D mC2023 05 12.45987114 33 03.154+13 34 29.60         18.39GVEJ114I52
         K23J01D mC2023 05 12.46004214 33 03.560+13 34 25.79         18.92GVEJ114I52
         K23J01D KC2023 05 12.48211214 34 14.79 +13 34 34.7          19.3 GVEJ114474
         K23J01D KC2023 05 12.48253814 34 15.64 +13 34 24.0          18.7 GVEJ114474
         K23J01D KC2023 05 12.48339014 34 17.28 +13 34 03.0          19.1 GVEJ114474
         K23J01D KC2023 05 12.48423814 34 18.97 +13 33 41.8          19.2 GVEJ114474
         K23J01D KC2023 05 12.48508714 34 20.61 +13 33 20.1          18.9 GVEJ114474
         K23J01D KC2023 05 12.80646 14 45 44.46 +11 07 16.4          19.7 GVEJ114C82
         K23J01D KC2023 05 12.80947 14 45 50.38 +11 06 00.3          19.6 GVEJ114C82
         K23J01D KC2023 05 12.81263 14 45 56.71 +11 04 38.7          19.6 GVEJ114C82
         K23J01D KC2023 05 12.81887 14 46 11.47 +11 09 45.0          19.2 VZEJ114M49
         K23J01D KC2023 05 12.83747 14 46 47.48 +11 01 51.5          19.0 VZEJ114M49
         K23J01D KC2023 05 12.85679 14 47 24.64 +10 53 38.6          18.8 VZEJ114M49
         K23J01D KB2023 05 12.87087514 47 50.400+10 38 53.70         18.3 GXEJ114K74
         K23J01D KB2023 05 12.87889814 48 06.137+10 35 27.64         18.5 GXEJ114K74
         K23J01D KB2023 05 12.88691414 48 21.878+10 32 01.61         18.6 GXEJ114K74
         K23J01D KC2023 05 12.89157 14 48 30.792+10 29 48.44         18.9 GXEJ114L38
         K23J01D KC2023 05 12.89998 14 48 47.256+10 26 11.83         18.5 GXEJ114L38
         K23J01D KC2023 05 12.94503 14 50 14.92 +10 07 40.7          19.4 GXEJ114K83
         K23J01D KC2023 05 12.94695 14 50 18.65 +10 06 50.9          18.9 GXEJ114K83
         K23J01D KC2023 05 12.94887 14 50 22.34 +10 06 00.5          19.3 GXEJ114K83
         K23J01D KC2023 05 12.95385314 50 36.18 +10 03 46.0          19.1 GXEJ114I93
         K23J01D KC2023 05 12.95714514 50 42.54 +10 02 21.0          19.1 GXEJ114I93
         K23J01D KC2023 05 12.96040414 50 48.84 +10 00 56.4          19.1 GXEJ114I93
    
    Observer details:
    474 Mount John Observatory, Lake Tekapo.  Observers A. C. Gilmore, P. M.
        Kilmartin.  Measurer P. M. Kilmartin.  1.0-m f/7.7 reflector + CCD.
    703 Catalina Sky Survey.  Observer A. Serrano.  Measurers E. J. Christensen,
        D. Fay, J. B. Fazekas, D. C. Fuls, A. R. Gibbs, A. D. Grauer, H. Groeller,
        J. K. Hogan, R. A. Kowalski, S. M. Larson, G. J. Leonard, D. Rankin, R. L.
        Seaman, A. Serrano, F. C. Shelly, K. W. Wierzchos.  0.68-m Schmidt + 10K
        CCD.
    C82 Osservatorio Astronomico Nastro Verde, Sorrento.  Observer N. Ruocco.
        0.35-m f/6.3 0.35 m f/6.3 Schmidt-Cassegrain + CCD.
    I52 Steward Observatory, Mt. Lemmon Station.  Observer K. W. Wierzchos.
        Measurers E. J. Christensen, D. Fay, J. B. Fazekas, D. C. Fuls, A. R.
        Gibbs, A. D. Grauer, H. Groeller, J. K. Hogan, R. A. Kowalski, S. M.
        Larson, G. J. Leonard, D. Rankin, R. L. Seaman, A. Serrano, F. C. Shelly,
        K. W. Wierzchos.  1.0-m prime focus + CCD.
    I93 St Pardon de Conques.  Observer F. Losse.  0.40-m f/3.7 reflector + CCD.
    K74 Muensterschwarzach Observatory, Schwarzach.  Observer C. Gerhard.  0.30-m
        f/3.75 reflector + CMO.
    K83 Beppe Forti Astronomical Observatory, Montelupo.  Observers M. Tombelli,
        M. Iozzi, A. Squilloni, G. Interrante, B. Venticinque, M. Lombardo, A.
        Boattini, M. Calamandrei, G. Fieramosca.  Measurers M. Tombelli, F.
        Bernardi.  0.40-m f/8 Ritchey-Chretien + CCD.
    L38 Gartensternwarte Schafsweide, Sehlde.  Observer A. Opitz.  0.35-m f/4.6
        Newton + CCD.
    M49 IAS Remote Observatory, Hakos.  Observers D. Husar, K. Meo.  Measurer D.
        Husar.  0.25-m f/4.6 reflector + CCD.
    
    Orbital elements:
    2023 JD1                                                 Earth MOID = 0.0188 AU
    Epoch 2023 Feb. 25.0 TT = JDT 2460000.5                 Veres                   
    M 335.15574              (2000.0)            P               Q                  
    n   0.38228405     Peri.  158.86634     -0.79183597     +0.60817657             
    a   1.8802341      Node    58.71445     -0.56928989     -0.70191073             
    e   0.4583960      Incl.    3.74582     -0.22114435     -0.37073252             
    P   2.58           H   26.33          G   0.15           U   7                  
    Residuals in seconds of arc
    230512 703  0.7+  0.5-    230512 474  0.3-  0.0     230512 K74  0.2+  0.3+
    230512 703  0.6-  0.1-    230512 474  0.0   0.1-    230512 K74  0.7+  0.2+
    230512 703  0.5-  0.6-    230512 474  0.4-  0.2+    230512 L38  0.2+  0.2+
    230512 703  0.6-  0.0     230512 474  0.1+  0.3+    230512 L38  0.0   0.2-
    230512 I52  0.2-  0.1-    230512 474  0.2-  0.2-    230512 K83  0.3-  0.7+
    230512 I52  0.0   0.2+    230512 C82  0.2+  0.5-    230512 K83  0.0   0.7+
    230512 I52  0.0   0.0     230512 C82  0.2-  0.1-    230512 K83  0.3-  0.0
    230512 I52  0.0   0.1+    230512 C82 (1.2+  1.3-)   230512 I93  0.1+  0.5+
    230512 I52  0.0   0.0     230512 M49  0.1-  0.2+    230512 I93  0.0   0.6+
    230512 I52  0.0   0.2+    230512 M49  0.1-  0.1-    230512 I93  0.0   0.3+
    230512 I52  0.8-  0.2-    230512 M49  0.3-  0.1+
    230512 I52  0.1+  0.3+    230512 K74  0.2+  0.5+
    
    Ephemeris:
    2023 JD1                 a,e,i = 1.88, 0.46, 4                   q = 1.0183
    Date    TT    R. A. (2000) Decl.     Delta      r    Elong.  Phase     V
    2023 04 13    09 22 59.0 +40 21 32   0.1121  1.0391   106.1    67.9    24.1
    ...
    2023 04 28    10 06 34.5 +40 45 36   0.06065 1.0189   100.1    76.6    23.0
    ...
    2023 05 06    11 32 07.6 +37 30 13   0.03372 1.0200   108.9    69.3    21.4
    ...
    2023 05 12    14 17 24.1 +16 44 55   0.02031 1.0262   142.7    36.6    19.4
    2023 05 13    14 52 06.3 +09 48 22   0.01987 1.0277   151.3    28.1    19.1
    2023 05 14    15 25 34.9 +02 35 07   0.02017 1.0293   159.0    20.6    18.9
    ...
    2023 05 20    17 42 25.0 -24 50 16   0.03340 1.0415   152.4    26.8    20.2
    ...
    2023 05 28    18 47 46.6 -33 42 04   0.06169 1.0641   144.6    33.5    21.8
    ...
    2023 06 12    19 16 11.7 -37 00 03   0.1218  1.1236   151.2    25.8    23.2
    
    M. P. C. Staff               (C) Copyright 2023 MPC           M.P.E.C. 2023-J114
    


    Read MPEC 2023-J113 Read MPEC 2023-J115


    MPEC number:

    Enter an MPEC number in one of the following forms:

    • 1997-B01 (the full form)
    • J97B01 (the packed version of the full form)
    • B01 (the abbreviated form)